Location: Luxembourg
(49.6117°N, 6.1300°E)
Time: 15:11:47
(UTC+02:00)

Envisat - Pass Details

Date: 26 January 2019
Orbit: 764 x 766 km, 98.2° (Epoch: 19 April)

Event Time Altitude Azimuth Distance (km) Brightness Sun altitude
Rises 18:39:42 0° 150° (SSE) 3,219 6.1 -12.8°
Reaches altitude 10° 18:42:01 10° 146° (SE) 2,298 5.3 -13.2°
Maximum altitude 18:46:57 55° 70° (ENE) 921 3.1 -13.9°
Drops below altitude 10° 18:51:55 10° 354° (N) 2,315 5.4 -14.7°
Sets 18:54:16 0° 350° (N) 3,246 6.2 -15.1°
